Showing default

NEXTSAT-2, 56743

Orbit data source: Space-Track

NEXTSAT-2, 56743 is a payload satellite owned by KAIST (KR) in SSO that was launched on Thu, 25 May 2023 UTC via an NURI launch vehicle from the Naro Space Center, South Korea (NSC). Payload-class satellites include a variety of spacecraft equipped with specific instruments for various scientific and technological missions. These include communications satellites like Starlink; space stations such as the ISS; scientific satellites like the Hubble; Earth observation satellites from companies like Planet Labs, Umbra, and HawkEye 360; GPS; miniature CubeSats for education and research; and military/defense satellites.

Loading next visibility...
Identifier
56743, 2023-072A
Orbit
SSO
Country
Flag of UnknownUnknown / SKOR
Related business
Manufacturer
SatRec Initiative
Mission
Operational Civil Ast/Tech
Bus & Motor
NEXTSAT, Unknown motor
Mass
180 kg wet, 180 kg dry
Launch date (UTC)
2023-05-25 (3 years ago)
Launch vehicle
NURI
Launch site
Naro Space Center, South Korea (NSC)
Object type
Payload
Rocket body
Debris
Shape & HBR
Box + 1 Pan, 2.6 m
Radar Cross Section
3.727 m², Medium (>0.1 m² and < 1m²)

Expand to show TLE details & history
Last TLE update: 15 hours ago

TLE from 15 hours ago
0 NEXTSAT-2
1 56743U 23072A   26034.60744432  .00009096  00000-0  35863-3 0  9996
2 56743  97.5287 230.4877 0007074 121.7804 238.4124 15.25782618149213
Epoch: 2026-02-03T14:34Z
TLE epoch observation values (Epoch: 2026-02-03T14:34:43.189Z)
Latitude
0.00001°
Longitude
-121.9782°
Altitude
494.078 km
Speed
7.616 km/s
True Right ascension
15h 21m 57s
True Declination
0° 00' 00"
Sunlit
Object was in daylight at epoch
Visualization orbit readout
Latitude
Unknown
Longitude
Unknown
Altitude
Unknown
Speed
Unknown
Apparent Right ascension
Unknown
Apparent Declination
Unknown
Sunlit
N/A
Visualization observer readout
Local Sidereal Time
07:09:28
Azimuth
Unknown
Elevation
Unknown
Doppler factor
Unknown
Orbital elements
Apogee altitude
490.255 km
Perigee altitude
480.545 km
Semi-major axis
6,863.537 km
Eccentricity
0.00071
Inclination
97.5287°
RAAN
230.4877°
Arg. of periapsis
121.7804°
True anomaly
238.34338°
Mean anomaly
238.4124°
Eccentric anomaly
238.37789°
Mean motion
3.81699 °/min
Orbital period
94.32 mins
BSTAR
0.00035863
Loading maneuver chart data...
Computing Atmospheric mass density...
Loading historical data...
Loading historical data...
Loading historical data...
Loading historical data...
Loading historical data...
Loading historical data...
Loading historical data...

Documentation

Showing up to 5 results
|